Regional Weather Roundup
Issued by NWS Cleveland, OH

Home | Current Version | Previous Version | Text Only | Print | Product List | Glossary Off
Versions: 1 2 3 4 5 6 7 8 9 10 11 12 13 14 15 16 17 18 19 20 21 22 23 24 25 26 27 28 29 30 31 32 33 34 35 36 37 38 39 40 41 42 43 44 45 46 47 48 49 50

000
ASUS41 KCLE 221100
RWRCLE
OHIO REGIONAL WEATHER ROUNDUP
NATIONAL WEATHER SERVICE WILMINGTON, OH
700 AM EDT WED OCT 22 2014

NOTE: "FAIR" INDICATES FEW OR NO CLOUDS BELOW 12,000 FEET WITH NO
SIGNIFICANT WEATHER AND/OR OBSTRUCTIONS TO VISIBILITY.

OHZ001>008-015>018-024>027-034-035-043-044-221200-
   NORTHWEST OHIO

CITY           SKY/WX    TMP DP  RH WIND       PRES   REMARKS
DEFIANCE       CLOUDY    44  38  79 N7        30.29R
FINDLAY        CLOUDY    45  39  79 N6        30.25R
TOLEDO EXPRESS CLOUDY    44  37  76 N7        30.27R
TOLEDO METCALF CLOUDY    46  38  73 N9        30.27R
LIMA           CLOUDY    44  39  82 N5        30.25R
$$

OHZ009>014-019>023-028>033-038-089-221200-
   NORTHEAST OHIO

CITY           SKY/WX    TMP DP  RH WIND       PRES   REMARKS
CLE-HOPKINS    CLOUDY    48  43  82 N14       30.22R
CLE-LAKEFRONT  CLOUDY    49  43  80 N13       30.19R
CUY CO. ARPT   MOCLDY    48  45  87 N14       30.20
LORAIN-ELYRIA  CLOUDY    47  43  86 N6        30.21R
ASHTABULA      CLOUDY    46  43  89 VRB5      30.18R
AKRON-CANTON   CLOUDY    47  42  83 N12       30.16R
WOOSTER        NOT AVBL
MANSFIELD      CLOUDY    44  44 100 NW9       30.20R FOG
YOUNGSTOWN     CLOUDY    45  44  97 N15       30.14R FOG
$$

OHZ042-051>053-060>062-070>072-077>081-221200-
  SOUTHWEST OHIO

CITY           SKY/WX    TMP DP  RH WIND       PRES   REMARKS
CINC-COVINGTON CLOUDY    45  37  73 N10G21    30.24R
CINC-LUNKEN    CLOUDY    46  39  76 N6        30.26R
HAMILTON       MOCLDY    43  38  82 N7        30.26R
DAYTON         NOT AVBL
WRIGHT-PAT AFB NOT AVBL
DAYTON GENERAL PTCLDY    41  38  89 N6        30.23R
WILMINGTON     CLOUDY    43  38  82 N14       30.22R
$$

OHZ036-037-039>041-045>050-054>059-063>069-073>076-082>088-221200-
  CENTRAL AND SOUTHEAST OHIO

CITY           SKY/WX    TMP DP  RH WIND       PRES   REMARKS
COLUMBUS       CLOUDY    44  40  85 N13G21    30.20R
OSU AIRPORT    CLOUDY    43  40  89 NW12G21   30.21R
BOLTON FIELD   NOT AVBL
RICKENBACK AFB NOT AVBL
NEWARK         CLOUDY    46  42  86 NW9       30.18S
MARION         CLOUDY    43  40  89 NW10      30.23R FOG
LANCASTER      CLOUDY    46  41  82 NW10      30.20R
ZANESVILLE     CLOUDY    46  43  89 NW9       30.16R
NEW PHILLY     CLOUDY    48  44  86 N7        30.17R
$$



USA.gov is the U.S. government's official web portal to all federal, state and local government web resources and services.